sat.trackr.live / text

‹ back to catalog

STARLINK-4022

NORAD 52629 · 2022-052AH

PAYLOAD ACTIVE UNKNOWN

§ Identity

Operator
Country
US
Launch date
2022-05-14
Launch site
AFETR
Launch vehicle
Mass (kg)
RCS (m²)

Purposes: comms

External: N2YO · Heavens-Above · Gunter

§ Orbital elements

Epoch: 2026-05-25T01:59:35.744640Z

Period
95.44 min
Inclination
53.2135°
Eccentricity
0.0001547
Mean motion
15.08820137 rev/d
Perigee alt
538.7 km
Apogee alt
540.9 km
Semi-major
6,917.9 km
B*
1.1303e-4
RAAN
286.1373°
Arg perigee
88.2394°
Mean anomaly
271.8775°
Rev number
22,252

§ Raw data

STARLINK-40221 52629U 22052AH  26145.08305260  .00001510  00000+0  11303-3 0  99942 52629  53.2135 286.1373 0001547  88.2394 271.8775 15.08820137222521

JSON: /api/v1/satellites/52629 · /tle

For live sub-satellite position, see the globe view (requires WebGL).

§ Visibility from observer

Set your observer location to see the next 7 days of passes ≥ 10°. The values pass through the URL so the page stays shareable.

No JS? Fill the form by hand. The geolocation button needs JavaScript.